Location: Newark
(45.4041°N, 17.9426°E)
Time: 13:15:00
(UTC+00:00)

Envisat - Pass Details

Date: 28 September 2019
Orbit: 764 x 766 km, 98.1° (Epoch: 18 October)

Event Time Altitude Azimuth Distance (km) Brightness Sun altitude
Rises 17:45:37 0° 195° (SSW) 3,219 6.3 -13.2°
Reaches altitude 10° 17:48:12 10° 206° (SSW) 2,298 5.7 -13.6°
Maximum altitude 17:52:34 29° 266° (W) 1,390 5.1 -14.4°
Drops below altitude 10° 17:56:57 10° 325° (NW) 2,312 6.2 -15.1°
Sets 17:59:34 0° 337° (NNW) 3,243 6.8 -15.6°
